Showing default

ANGELS, 44876

Orbit data source: Space-Track

ANGELS, 44876 is a payload satellite owned by CNES (FR) in SSO that was launched on Wed, 18 Dec 2019 UTC via a SOYUZ-ST-A launch vehicle from the French Guiana (FRGUI). Payloads include a variety of satellites, spacecraft, and rockets equipped with specific instruments for various scientific and technological missions. These include communications satellites like Starlink; space stations such as the ISS; scientific satellites like the Hubble; Earth observation satellites from companies like Planet Labs, Umbra, and HawkEye 360; GPS; miniature CubeSats for education and research; and military/defense satellites.

Loading next visibility...
ANGELS details
Identifier
44876, 2019-092D
Orbit
SSO
Last TLE update13 hours ago
Origin
Flag of FRCNES (FR)
ManufacturerHemeria
MissionOperational Civil Communications
Bus & MotorCUBESAT 12U, Unknown motor
Mass27 kg wet, 27 kg dry
Launch date (UTC)
2019-12-18 (5 years ago)
Launch vehicle
SOYUZ-ST-A
Launch site
French Guiana (FRGUI)
Object type
Payload
Rocket body
Debris
Shape & HBRBox + 2 Pan, Unknown HBR
Radar Cross Section0.126 m², Medium (>0.1 m² and < 1m²)

Expand to show TLE details & history

TLE from 13 hours ago
0 ANGELS
1 44876U 19092D   24361.08374481  .00034699  00000-0  10892-2 0  9994
2 44876  97.4634 190.5789 0009171   8.6669 351.4730 15.32905900278695
Epoch: 2024-12-26T02:00Z
Definitive object data (Epoch: 2024-12-26T02:00:35.551Z)
Latitude0.00001°
Longitude65.36254°
Altitude464.044 km
Speed7.638 km/s
True Right ascension12h 42m 18s
True Declination0° 00' 00"
Sunlit
Object was in daylight at TLE epoch
Visualization TLE readout
Latitude71.85876°
Longitude42.47344°
Altitude476.942 km
Speed7.635 km/s
Apparent Right ascension03h 50m 30s
Apparent Declination32° 58' 06"
Sunlit
Object is in full shadow
Visualization observer readout
Local Sidereal Time14:13:34
Azimuth339.238° N
Elevation-13.745°
Doppler factor1
Orbital elements
Apogee altitude470.374 km
Perigee altitude457.824 km
Semi-major axis6,842.236 km
Eccentricity0.0009171
Inclination97.4634°
RAAN190.5789°
Arg. of periapsis8.6669°
True anomaly351.4574°
Mean anomaly351.473°
Eccentric anomaly351.4652°
Mean motion3.83483 °/min
BSTAR0.0010892
Orbital period93.88 mins
Loading maneuver chart data...
Loading historical data...
Loading historical data...
Loading historical data...
Loading historical data...
Loading historical data...
Loading historical data...
Loading historical data...

ANGELS Visibility forecast

Observer location: undefined°, undefined

Span
Click to sort rows by Start time (UTC) header in descending order
Start Az.
Max El. time (UTC)
Max El. Az.
Max El.
End time (UTC)
End Az.
6 mins2024-12-27 02:03:40.152Z358.535° N2024-12-27 02:06:40.152Z289.984° WNW36.144°2024-12-27 02:09:40.152Z213.331° SW
4 mins2024-12-27 12:37:40.152Z134.593° SE2024-12-27 12:39:40.152Z47.78° ENE34.859°2024-12-27 12:41:40.152Z4.716° NNE
|